> 01, 02 y 03 de Abril / Concordia (Entre Ríos)
Pos Auto Piloto Marca Vts. Tiempo Dif.
1 69 TOMAS VITAR TOYOTA ETIOS 12 31:59.305
2 5 THIAGO MARTINEZ RENAULT CLIO 12 32:01.413 2,108
3 10 TOMAS SNIECHOWSKI FIESTA KINETIC 12 32:04.732 5,427
4 18 GONZALO ALCAINE RENAULT CLIO 12 32:04.741 5,436
5 4 JUAN BENEDETTI TOYOTA ETIOS 12 32:04.874 5,569
6 3 ANDRES D'AMICO RENAULT CLIO 12 32:06.236 6,931
7 6 RENZO CERRETTI FIESTA KINETIC 12 32:07.118 7,813
8 8 NICOLAS BULICH TOYOTA ETIOS 12 32:07.294 7,989
9 11 ALFREDO LESTARD RENAULT CLIO 12 32:07.350 8,045
10 77 MATIAS CRAVERO FIESTA KINETIC 12 32:07.810 8,505
11 70 AGUSTIN HERRERA RENAULT CLIO 12 32:08.590 9,285
12 24 JUAN KREITZ TOYOTA ETIOS 12 32:09.002 9,697
13 121 NICOLAS POSCO TOYOTA ETIOS 12 32:10.144 10,839
14 12 JONATHAN BALDINELLI CHEVROLET ONIX 12 32:10.717 11,412
15 1 LUCAS PETRACCHINI RENAULT CLIO 12 32:11.853 12,548
16 19 LUIGI MELLI TOYOTA ETIOS 12 32:12.461 13,156
17 95 PABLO MELILLO RENAULT CLIO 12 32:14.730 15,425
18 2 FRANCISCO COLTRINARI TOYOTA ETIOS 12 32:14.969 15,664
19 14 JUAN M DAMIANI TOYOTA ETIOS 12 32:17.940 18,635
20 36 RAMIRO ALCAINE RENAULT CLIO 12 32:18.123 18,818
21 64 FAVIO GRINOVERO TOYOTA ETIOS 12 32:19.742 20,437
22 103 IGNACIO RODRIGUEZ RENAULT CLIO 12 32:20.155 20,850
23 132 TOMAS MARTIN FIESTA KINETIC 12 32:20.524 21,219
24 152 EZEQUIEL BALDINELLI FIESTA KINETIC 12 32:22.337 23,032
25 35 EDUARDO MORENO TOYOTA ETIOS 12 32:22.711 23,406
26 49 MARCELO GARCIA RENAULT CLIO 12 32:24.197 24,892
27 22 JUAN PABLO URRUTIA FIESTA KINETIC 12 32:25.043 25,738
28 56 RUBEN LOIACONO TOYOTA ETIOS 12 32:26.031 26,726
29 99 IGNACIO ARANEGA RENAULT CLIO 12 32:26.849 27,544
30 44 JUAN JOSE CONDE RENAULT CLIO 12 32:27.836 28,531
31 101 LUCIANO VIANA TOYOTA ETIOS 12 32:29.290 29,985
32 91 FRANCISCO MARTINEZ FIESTA KINETIC 12 32:30.516 31,211
33 52 FACUNDO VACCALLUZZO RENAULT CLIO 12 32:31.164 31,859
34 97 FEDERICO STIEGLITZ NISSAN MARCH 12 32:31.924 32,619
35 100 MAURO SALVI FIESTA KINETIC 12 32:32.660 33,355
36 232 ELOY HUARTE TOYOTA ETIOS 12 32:35.899 36,594
37 48 SEBASTIAN SIGNORE TOYOTA ETIOS 12 32:36.764 37,459
38 41 EMILIANO URQUIZA TOYOTA ETIOS 12 32:41.917 42,612
39 62 DANIEL LESTARD TOYOTA ETIOS 12 33:18.686 1:19.381
40 15 JORGE POSSIEL NISSAN MARCH 11 30:02.228 1 Vuelta
41 37 ELIAS BATTINI TOYOTA ETIOS 10 27:55.063 2 Vueltas
42 115 ROBERTO SINTIOLO RENAULT CLIO 10 30:14.491 2 Vueltas
73 GABRIEL MELIAN FIESTA KINETIC 8 21:43.551 4 Vueltas
58 DIEGO PRESTA RENAULT CLIO 7 19:01.812 5 Vueltas
29 PABLO MALIZIA TOYOTA ETIOS 4 9:09.525 8 Vueltas
87 MARCELO MARCHESSE TOYOTA ETIOS 4 9:10.125 8 Vueltas

AUTO 121 (POSCO) APERCIBIDO POR EXCEDER LIMITE DEL CIRCUITO.
AUTO 8 (BULICH) RECARGADO CON 2 PUESTOS POR MANIOBRA PELIGROSA AL 6 (CERRETTI)

Márgen de victoria 2.108 Velocidad media 105,788 Mejor t° de vuelta 2:11.587 Mejor Vel. 128,584 Mejor vuelta para 121 – NICOLAS POSCO

Pos Auto Piloto Marca Vts. Tiempo Dif.
1 3 ANDRES D'AMICO RENAULT CLIO 6 11:50.048
2 1 LUCAS PETRACCHINI RENAULT CLIO 6 11:50.100 0.052
3 14 JUAN M DAMIANI TOYOTA ETIOS 6 11:50.551 0.503
4 121 NICOLAS POSCO TOYOTA ETIOS 6 11:53.205 3,157
5 10 TOMAS SNIECHOWSKI FIESTA KINETIC 6 11:53.680 3,632
6 22 JUAN PABLO URRUTIA FIESTA KINETIC 6 11:57.974 7,926
7 87 MARCELO MARCHESSE TOYOTA ETIOS 6 11:58.842 8,794
8 15 JORGE POSSIEL NISSAN MARCH 6 12:00.575 10,527
9 70 AGUSTIN HERRERA RENAULT CLIO 6 12:02.043 11,995
10 62 DANIEL LESTARD TOYOTA ETIOS 6 12:10.940 20,892
11 101 LUCIANO VIANA TOYOTA ETIOS 6 12:11.711 21,663
12 49 MARCELO GARCIA RENAULT CLIO 6 12:12.003 21,955
13 52 FACUNDO VACCALLUZZO RENAULT CLIO 6 12:12.252 22,204
14 99 IGNACIO ARANEGA RENAULT CLIO 6 12:17.707 27,659
15 91 FRANCISCO MARTINEZ FIESTA KINETIC 6 12:22.956 32,908
16 66 JUAN GARAVAGLIA CHEVROLET ONIX 6 12:23.637 33,589
17 80 IGNACIO GRIPPO TOYOTA ETIOS 6 13:00.441 1:10.393
111 DAMIAN DE LIMA TOYOTA ETIOS 4 8:14.913 2 Vueltas

AUTO 1 (PETRACCHINI) RECARGADO CON 1 PUESTO POR EXCEDER LIMITE DEL CIRCUITO.

Márgen de victoria 0.052 Velocidad media 142,976 Mejor t° de vuelta 1:58.201 Mejor Vel. 143,146 Mejor vuelta para 14 – JUAN M DAMIANI

Pos Auto Piloto Marca Vts. Tiempo Dif.
1 18 GONZALO ALCAINE RENAULT CLIO 6 11:49.727
2 4 JUAN BENEDETTI TOYOTA ETIOS 6 11:50.555 0.828
3 69 TOMAS VITAR TOYOTA ETIOS 6 11:51.422 1,695
4 6 RENZO CERRETTI FIESTA KINETIC 6 11:52.113 2,386
5 77 MATIAS CRAVERO FIESTA KINETIC 6 11:52.731 3,004
6 2 FRANCISCO COLTRINARI TOYOTA ETIOS 6 11:55.479 5,752
7 36 RAMIRO ALCAINE RENAULT CLIO 6 11:56.760 7,033
8 12 JONATHAN BALDINELLI CHEVROLET ONIX 6 11:58.895 9,168
9 95 PABLO MELILLO RENAULT CLIO 6 12:04.258 14,531
10 19 LUIGI MELLI TOYOTA ETIOS 6 12:04.670 14,943
11 132 TOMAS MARTIN FIESTA KINETIC 6 12:08.685 18,958
12 100 MAURO SALVI FIESTA KINETIC 6 12:08.862 19,135
13 44 JUAN JOSE CONDE RENAULT CLIO 6 12:09.341 19,614
14 41 EMILIANO URQUIZA TOYOTA ETIOS 6 12:09.899 20,172
15 58 DIEGO PRESTA RENAULT CLIO 6 12:10.175 20,448
16 232 ELOY HUARTE TOYOTA ETIOS 6 12:10.989 21,262
88 LAUTARO LANCI TOYOTA ETIOS 2 4:08.562 4 Vueltas
57 ESTEBAN CASAIS RENAULT CLIO

Márgen de victoria 0.828 Velocidad media 143,041 Mejor t° de vuelta 1:58.275 Mejor Vel. 143,056 Mejor vuelta para 18 – GONZALO ALCAINE

Pos Auto Piloto Marca Vts. Tiempo Dif.
1 5 THIAGO MARTINEZ RENAULT CLIO 6 13:01.447
2 8 NICOLAS BULICH TOYOTA ETIOS 6 13:02.248 0.801
3 29 PABLO MALIZIA TOYOTA ETIOS 6 13:03.207 1,760
4 11 ALFREDO LESTARD RENAULT CLIO 6 13:03.800 2,353
5 97 FEDERICO STIEGLITZ NISSAN MARCH 6 13:04.912 3,465
6 24 JUAN KREITZ TOYOTA ETIOS 6 13:05.447 4,000
7 103 IGNACIO RODRIGUEZ RENAULT CLIO 6 13:07.003 5,556
8 64 FAVIO GRINOVERO TOYOTA ETIOS 6 13:07.965 6,518
9 152 EZEQUIEL BALDINELLI FIESTA KINETIC 6 13:08.235 6,788
10 35 EDUARDO MORENO TOYOTA ETIOS 6 13:08.322 6,875
11 56 RUBEN LOIACONO TOYOTA ETIOS 6 13:09.680 8,233
12 48 SEBASTIAN SIGNORE TOYOTA ETIOS 6 13:10.160 8,713
13 37 ELIAS BATTINI TOYOTA ETIOS 6 13:11.555 10,108
14 73 GABRIEL MELIAN FIESTA KINETIC 6 13:12.160 10,713
15 115 ROBERTO SINTIOLO RENAULT CLIO 6 13:13.896 12,449
16 67 PABLO M. GRIPPO RENAULT CLIO 6 13:28.021 26,574
17 20 SANTIAGO ROBLEDO TOYOTA ETIOS 5 11:04.658 1 Vuelta
28 LUCAS BARBALARGA RENAULT CLIO

Márgen de victoria 0.801 Velocidad media 129,913 Mejor t° de vuelta 1:58.565 Mejor Vel. 142,707 Mejor vuelta para 5 – THIAGO MARTINEZ

Pos Auto Piloto Marca Tiempo Dif.
1 5 THIAGO MARTINEZ RENAULT CLIO 1:56.567
2 4 JUAN BENEDETTI TOYOTA ETIOS 1:56.640 0.073
3 1 LUCAS PETRACCHINI RENAULT CLIO 1:56.737 0.170
4 20 SANTIAGO ROBLEDO TOYOTA ETIOS 1:56.755 0.188
5 18 GONZALO ALCAINE RENAULT CLIO 1:56.759 0.192
6 3 ANDRES D'AMICO RENAULT CLIO 1:56.887 0.320
7 28 LUCAS BARBALARGA RENAULT CLIO 1:57.021 0.454
8 69 TOMAS VITAR TOYOTA ETIOS 1:57.029 0.462
9 10 TOMAS SNIECHOWSKI FIESTA KINETIC 1:57.031 0.464
10 8 NICOLAS BULICH TOYOTA ETIOS 1:57.040 0.473
11 6 RENZO CERRETTI FIESTA KINETIC 1:57.066 0.499
12 14 JUAN M DAMIANI TOYOTA ETIOS 1:57.148 0.581
13 29 PABLO MALIZIA TOYOTA ETIOS 1:57.179 0.612
14 12 JONATHAN BALDINELLI CHEVROLET ONIX 1:57.257 0.690
15 121 NICOLAS POSCO TOYOTA ETIOS 1:57.273 0.706
16 11 ALFREDO LESTARD RENAULT CLIO 1:57.300 0.733
17 2 FRANCISCO COLTRINARI TOYOTA ETIOS 1:57.328 0.761
18 22 JUAN PABLO URRUTIA FIESTA KINETIC 1:57.420 0.853
19 24 JUAN KREITZ TOYOTA ETIOS 1:57.487 0.920
20 77 MATIAS CRAVERO FIESTA KINETIC 1:57.511 0.944
21 15 JORGE POSSIEL NISSAN MARCH 1:57.643 1,076
22 97 FEDERICO STIEGLITZ NISSAN MARCH 1:57.684 1,117
23 36 RAMIRO ALCAINE RENAULT CLIO 1:57.788 1,221
24 87 MARCELO MARCHESSE TOYOTA ETIOS 1:57.851 1,284
25 64 FAVIO GRINOVERO TOYOTA ETIOS 1:57.918 1,351
26 19 LUIGI MELLI TOYOTA ETIOS 1:57.990 1,423
27 70 AGUSTIN HERRERA RENAULT CLIO 1:58.030 1,463
28 103 IGNACIO RODRIGUEZ RENAULT CLIO 1:58.144 1,577
29 41 EMILIANO URQUIZA TOYOTA ETIOS 1:58.375 1,808
30 62 DANIEL LESTARD TOYOTA ETIOS 1:58.444 1,877
31 152 EZEQUIEL BALDINELLI FIESTA KINETIC 1:58.505 1,938
32 132 TOMAS MARTIN FIESTA KINETIC 1:58.547 1,980
33 101 LUCIANO VIANA TOYOTA ETIOS 1:58.691 2,124
34 35 EDUARDO MORENO TOYOTA ETIOS 1:58.735 2,168
35 95 PABLO MELILLO RENAULT CLIO 1:58.738 2,171
36 80 IGNACIO GRIPPO TOYOTA ETIOS 1:58.790 2,223
37 48 SEBASTIAN SIGNORE TOYOTA ETIOS 1:58.820 2,253
38 44 JUAN JOSE CONDE RENAULT CLIO 1:58.949 2,382
39 111 DAMIAN DE LIMA TOYOTA ETIOS 1:58.958 2,391
40 37 ELIAS BATTINI TOYOTA ETIOS 1:58.999 2,432
41 100 MAURO SALVI RENAULT CLIO 1:58.999 2,432
42 49 MARCELO GARCIA RENAULT CLIO 1:59.010 2,443
43 56 RUBEN LOIACONO TOYOTA ETIOS 1:59.050 2,483
44 57 ESTEBAN CASAIS RENAULT CLIO 1:59.057 2,490
45 91 FRANCISCO MARTINEZ FIESTA KINETIC 1:59.117 2,550
46 73 GABRIEL MELIAN FIESTA KINETIC 1:59.127 2,560
47 58 DIEGO PRESTA RENAULT CLIO 1:59.179 2,612
48 52 FACUNDO VACCALLUZZO RENAULT CLIO 1:59.211 2,644
49 67 PABLO M. GRIPPO RENAULT CLIO 1:59.215 2,648
50 232 ELOY HUARTE TOYOTA ETIOS 1:59.476 2,909
51 99 IGNACIO ARANEGA RENAULT CLIO 1:59.825 3,258
52 115 ROBERTO SINTIOLO RENAULT CLIO 2:01.059 4,492
53 88 LAUTARO LANCI TOYOTA ETIOS 2:01.156 4,589
54 66 JUAN GARAVAGLIA CHEVROLET ONIX 2:01.347 4,780

Pos Auto Piloto Marca Tiempo Dif.
1 3 ANDRES D'AMICO RENAULT CLIO 1:57.027
2 6 RENZO CERRETTI FIESTA KINETIC 1:57.066 0.039
3 4 JUAN BENEDETTI TOYOTA ETIOS 1:57.132 0.105
4 18 GONZALO ALCAINE RENAULT CLIO 1:57.165 0.138
5 69 TOMAS VITAR TOYOTA ETIOS 1:57.228 0.201
6 12 JONATHAN BALDINELLI CHEVROLET ONIX 1:57.257 0.230
7 20 SANTIAGO ROBLEDO TOYOTA ETIOS 1:57.268 0.241
8 5 THIAGO MARTINEZ RENAULT CLIO 1:57.272 0.245
9 28 LUCAS BARBALARGA RENAULT CLIO 1:57.285 0.258
10 121 NICOLAS POSCO TOYOTA ETIOS 1:57.420 0.393
11 14 JUAN M DAMIANI TOYOTA ETIOS 1:57.454 0.427
12 29 PABLO MALIZIA TOYOTA ETIOS 1:57.480 0.453
13 97 FEDERICO STIEGLITZ NISSAN MARCH 1:57.684 0.657
14 8 NICOLAS BULICH TOYOTA ETIOS 1:57.706 0.679
15 36 RAMIRO ALCAINE RENAULT CLIO 1:57.788 0.761
16 15 JORGE POSSIEL NISSAN MARCH 1:57.839 0.812
17 87 MARCELO MARCHESSE TOYOTA ETIOS 1:57.851 0.824
18 10 TOMAS SNIECHOWSKI FIESTA KINETIC 1:57.902 0.875
19 77 MATIAS CRAVERO FIESTA KINETIC 1:58.001 0.974
20 11 ALFREDO LESTARD RENAULT CLIO 1:58.056 1,029
21 2 FRANCISCO COLTRINARI TOYOTA ETIOS 1:58.203 1,176
22 64 FAVIO GRINOVERO TOYOTA ETIOS 1:58.248 1,221
23 22 JUAN PABLO URRUTIA FIESTA KINETIC 1:58.257 1,230
24 19 LUIGI MELLI TOYOTA ETIOS 1:58.424 1,397
25 152 EZEQUIEL BALDINELLI FIESTA KINETIC 1:58.505 1,478
26 41 EMILIANO URQUIZA TOYOTA ETIOS 1:58.748 1,721
27 24 JUAN KREITZ TOYOTA ETIOS 1:58.781 1,754
28 80 IGNACIO GRIPPO TOYOTA ETIOS 1:58.790 1,763
29 132 TOMAS MARTIN FIESTA KINETIC 1:58.867 1,840
30 100 MAURO SALVI FIESTA KINETIC 1:58.999 1,972
31 37 ELIAS BATTINI TOYOTA ETIOS 1:58.999 1,972
32 95 PABLO MELILLO RENAULT CLIO 1:59.046 2,019
33 56 RUBEN LOIACONO TOYOTA ETIOS 1:59.050 2,023
34 101 LUCIANO VIANA TOYOTA ETIOS 1:59.102 2,075
35 73 GABRIEL MELIAN FIESTA KINETIC 1:59.127 2,100
36 35 EDUARDO MORENO TOYOTA ETIOS 1:59.142 2,115
37 49 MARCELO GARCIA RENAULT CLIO 1:59.163 2,136
38 52 FACUNDO VACCALLUZZO RENAULT CLIO 1:59.211 2,184
39 57 ESTEBAN CASAIS RENAULT CLIO 1:59.297 2,270
40 91 FRANCISCO MARTINEZ FIESTA KINETIC 1:59.358 2,331
41 70 AGUSTIN HERRERA RENAULT CLIO 1:59.362 2,335
42 232 ELOY HUARTE TOYOTA ETIOS 1:59.476 2,449
43 103 IGNACIO RODRIGUEZ RENAULT CLIO 1:59.525 2,498
44 48 SEBASTIAN SIGNORE TOYOTA ETIOS 1:59.537 2,510
45 111 DAMIAN DE LIMA TOYOTA ETIOS 1:59.604 2,577
46 62 DANIEL LESTARD TOYOTA ETIOS 1:59.649 2,622
47 44 JUAN JOSE CONDE RENAULT CLIO 1:59.723 2,696
48 99 IGNACIO ARANEGA RENAULT CLIO 1:59.825 2,798
49 67 PABLO M. GRIPPO RENAULT CLIO 1:59.944 2,917
50 58 DIEGO PRESTA RENAULT CLIO 2:00.673 3,646
51 115 ROBERTO SINTIOLO RENAULT CLIO 2:01.269 4,242
52 66 JUAN GARAVAGLIA CHEVROLET ONIX 2:01.347 4,320
53 88 LAUTARO LANCI TOYOTA ETIOS 2:02.561 5,534

AUTO 1 (PETRACCHINI) EXCLUIDO PARCIAL POR NO RESPETAR REGIMEN DE PARQUE CERRADO.

Pos Auto Piloto Marca Tiempo Dif.
1 5 THIAGO MARTINEZ RENAULT CLIO 1:56.567
2 4 JUAN BENEDETTI TOYOTA ETIOS 1:56.640 0.073
3 1 LUCAS PETRACCHINI RENAULT CLIO 1:56.737 0.170
4 20 SANTIAGO ROBLEDO TOYOTA ETIOS 1:56.755 0.188
5 18 GONZALO ALCAINE RENAULT CLIO 1:56.759 0.192
6 3 ANDRES D'AMICO RENAULT CLIO 1:56.887 0.320
7 28 LUCAS BARBALARGA RENAULT CLIO 1:57.021 0.454
8 69 TOMAS VITAR TOYOTA ETIOS 1:57.029 0.462
9 10 TOMAS SNIECHOWSKI FIESTA KINETIC 1:57.031 0.464
10 8 NICOLAS BULICH TOYOTA ETIOS 1:57.040 0.473
11 14 JUAN M DAMIANI TOYOTA ETIOS 1:57.148 0.581
12 29 PABLO MALIZIA TOYOTA ETIOS 1:57.179 0.612
13 121 NICOLAS POSCO TOYOTA ETIOS 1:57.273 0.706
14 6 RENZO CERRETTI FIESTA KINETIC 1:57.287 0.720
15 11 ALFREDO LESTARD RENAULT CLIO 1:57.300 0.733
16 2 FRANCISCO COLTRINARI TOYOTA ETIOS 1:57.328 0.761
17 12 JONATHAN BALDINELLI CHEVROLET ONIX 1:57.367 0.800
18 22 JUAN PABLO URRUTIA FIESTA KINETIC 1:57.420 0.853
19 24 JUAN KREITZ TOYOTA ETIOS 1:57.487 0.920
20 77 MATIAS CRAVERO FIESTA KINETIC 1:57.511 0.944
21 15 JORGE POSSIEL NISSAN MARCH 1:57.643 1,076
22 97 FEDERICO STIEGLITZ NISSAN MARCH 1:57.828 1,261
23 36 RAMIRO ALCAINE RENAULT CLIO 1:57.862 1,295
24 64 FAVIO GRINOVERO TOYOTA ETIOS 1:57.918 1,351
25 19 LUIGI MELLI TOYOTA ETIOS 1:57.990 1,423
26 70 AGUSTIN HERRERA RENAULT CLIO 1:58.030 1,463
27 103 IGNACIO RODRIGUEZ RENAULT CLIO 1:58.144 1,577
28 87 MARCELO MARCHESSE TOYOTA ETIOS 1:58.146 1,579
29 41 EMILIANO URQUIZA TOYOTA ETIOS 1:58.375 1,808
30 62 DANIEL LESTARD TOYOTA ETIOS 1:58.444 1,877
31 132 TOMAS MARTIN FIESTA KINETIC 1:58.547 1,980
32 101 LUCIANO VIANA TOYOTA ETIOS 1:58.691 2,124
33 35 EDUARDO MORENO TOYOTA ETIOS 1:58.735 2,168
34 95 PABLO MELILLO RENAULT CLIO 1:58.738 2,171
35 48 SEBASTIAN SIGNORE TOYOTA ETIOS 1:58.820 2,253
36 44 JUAN JOSE CONDE RENAULT CLIO 1:58.949 2,382
37 111 DAMIAN DE LIMA TOYOTA ETIOS 1:58.958 2,391
38 49 MARCELO GARCIA RENAULT CLIO 1:59.010 2,443
39 57 ESTEBAN CASAIS RENAULT CLIO 1:59.057 2,490
40 37 ELIAS BATTINI TOYOTA ETIOS 1:59.060 2,493
41 91 FRANCISCO MARTINEZ FIESTA KINETIC 1:59.117 2,550
42 80 IGNACIO GRIPPO TOYOTA ETIOS 1:59.172 2,605
43 58 DIEGO PRESTA RENAULT CLIO 1:59.179 2,612
44 67 PABLO M. GRIPPO RENAULT CLIO 1:59.215 2,648
45 52 FACUNDO VACCALLUZZO RENAULT CLIO 1:59.361 2,794
46 56 RUBEN LOIACONO TOYOTA ETIOS 1:59.458 2,891
47 100 MAURO SALVI RENAULT CLIO 2:00.072 3,505
48 99 IGNACIO ARANEGA RENAULT CLIO 2:00.313 3,746
49 115 ROBERTO SINTIOLO RENAULT CLIO 2:01.059 4,492
50 88 LAUTARO LANCI TOYOTA ETIOS 2:01.156 4,589

AUTO 6 (CERRETTI) RETIRO DE UNA VUELTA POR EXCEDER LIMITE DEL CIRCUITO.
SIN TIEMPO AUTOS 66 (GARAVAGLIA), 73 (MELIAN), 76 (SILITTI) Y 232 (HUARTE).
AUTO 152 (BALDINELLI) RETIRO DE TIEMPOS POR ARTICULO 10.3 REGLAMENTO CAMPEONATO (CLASIFICACION).

Pos Auto Piloto Marca Tiempo Dif.
1 4 JUAN BENEDETTI TOYOTA ETIOS 1:56.641
2 3 ANDRES D'AMICO RENAULT CLIO 1:56.666 0.025
3 20 SANTIAGO ROBLEDO TOYOTA ETIOS 1:56.737 0.096
4 18 GONZALO ALCAINE RENAULT CLIO 1:56.758 0.117
5 69 TOMAS VITAR TOYOTA ETIOS 1:56.799 0.158
6 121 NICOLAS POSCO TOYOTA ETIOS 1:56.899 0.258
7 77 MATIAS CRAVERO FIESTA KINETIC 1:57.009 0.368
8 28 LUCAS BARBALARGA RENAULT CLIO 1:57.199 0.558
9 6 RENZO CERRETTI FIESTA KINETIC 1:57.207 0.566
10 11 ALFREDO LESTARD RENAULT CLIO 1:57.268 0.627
11 2 FRANCISCO COLTRINARI TOYOTA ETIOS 1:57.309 0.668
12 10 TOMAS SNIECHOWSKI FIESTA KINETIC 1:57.348 0.707
13 15 JORGE POSSIEL NISSAN MARCH 1:57.385 0.744
14 12 JONATHAN BALDINELLI CHEVROLET ONIX 1:57.438 0.797
15 97 FEDERICO STIEGLITZ NISSAN MARCH 1:57.484 0.843
16 8 NICOLAS BULICH TOYOTA ETIOS 1:57.552 0.911
17 5 THIAGO MARTINEZ RENAULT CLIO 1:57.563 0.922
18 64 FAVIO GRINOVERO TOYOTA ETIOS 1:57.684 1,043
19 87 MARCELO MARCHESSE TOYOTA ETIOS 1:57.728 1,087
20 36 RAMIRO ALCAINE RENAULT CLIO 1:57.752 1,111
21 70 AGUSTIN HERRERA RENAULT CLIO 1:57.879 1,238
22 103 IGNACIO RODRIGUEZ RENAULT CLIO 1:58.007 1,366
23 41 EMILIANO URQUIZA TOYOTA ETIOS 1:58.123 1,482
24 24 JUAN KREITZ TOYOTA ETIOS 1:58.144 1,503
25 1 LUCAS PETRACCHINI RENAULT CLIO 1:58.151 1,510
26 22 JUAN PABLO URRUTIA FIESTA KINETIC 1:58.177 1,536
27 19 LUIGI MELLI TOYOTA ETIOS 1:58.493 1,852
28 35 EDUARDO MORENO TOYOTA ETIOS 1:58.559 1,918
29 152 EZEQUIEL BALDINELLI FIESTA KINETIC 1:58.606 1,965
30 29 PABLO MALIZIA TOYOTA ETIOS 1:58.696 2,055
31 58 DIEGO PRESTA RENAULT CLIO 1:58.706 2,065
32 56 RUBEN LOIACONO TOYOTA ETIOS 1:58.763 2,122
33 49 MARCELO GARCIA RENAULT CLIO 1:58.885 2,244
34 57 ESTEBAN CASAIS RENAULT CLIO 1:58.944 2,303
35 67 PABLO M. GRIPPO RENAULT CLIO 1:59.223 2,582
36 44 JUAN JOSE CONDE RENAULT CLIO 1:59.251 2,610
37 132 TOMAS MARTIN FIESTA KINETIC 1:59.353 2,712
38 111 DAMIAN DE LIMA TOYOTA ETIOS 1:59.397 2,756
39 73 GABRIEL MELIAN FIESTA KINETIC 1:59.441 2,800
40 37 ELIAS BATTINI TOYOTA ETIOS 1:59.516 2,875
41 100 MAURO SALVI RENAULT CLIO 1:59.606 2,965
42 95 PABLO MELILLO RENAULT CLIO 1:59.728 3,087
43 101 LUCIANO VIANA TOYOTA ETIOS 1:59.774 3,133
44 62 DANIEL LESTARD TOYOTA ETIOS 1:59.896 3,255
45 91 FRANCISCO MARTINEZ FIESTA KINETIC 1:59.924 3,283
46 52 FACUNDO VACCALLUZZO RENAULT CLIO 1:59.945 3,304
47 80 IGNACIO GRIPPO TOYOTA ETIOS 1:59.988 3,347
48 48 SEBASTIAN SIGNORE TOYOTA ETIOS 2:00.027 3,386
49 99 IGNACIO ARANEGA RENAULT CLIO 2:00.184 3,543
50 232 ELOY HUARTE TOYOTA ETIOS 2:00.308 3,667
51 88 LAUTARO LANCI TOYOTA ETIOS 2:02.315 5,674
52 115 ROBERTO SINTIOLO RENAULT CLIO 2:02.828 6,187
53 14 JUAN M DAMIANI TOYOTA ETIOS 2:03.212 6,571
54 76 DAVID SILITTI RENAULT CLIO 2:05.776 9,135
55 66 JUAN GARAVAGLIA CHEVROLET ONIX 15:50.843 13:54.202

Pos Auto Piloto Marca Tiempo Dif.
1 4 JUAN BENEDETTI TOYOTA ETIOS 1:56.641
2 3 ANDRES D'AMICO RENAULT CLIO 1:56.666 0.025
3 20 SANTIAGO ROBLEDO TOYOTA ETIOS 1:56.737 0.096
4 18 GONZALO ALCAINE RENAULT CLIO 1:56.758 0.117
5 69 TOMAS VITAR TOYOTA ETIOS 1:56.799 0.158
6 77 MATIAS CRAVERO FIESTA KINETIC 1:57.009 0.368
7 28 LUCAS BARBALARGA RENAULT CLIO 1:57.199 0.558
8 6 RENZO CERRETTI FIESTA KINETIC 1:57.207 0.566
9 11 ALFREDO LESTARD RENAULT CLIO 1:57.268 0.627
10 2 FRANCISCO COLTRINARI TOYOTA ETIOS 1:57.309 0.668
11 10 TOMAS SNIECHOWSKI FIESTA KINETIC 1:57.348 0.707
12 15 JORGE POSSIEL NISSAN MARCH 1:57.385 0.744
13 12 JONATHAN BALDINELLI CHEVROLET ONIX 1:57.438 0.797
14 97 FEDERICO STIEGLITZ NISSAN MARCH 1:57.484 0.843
15 8 NICOLAS BULICH TOYOTA ETIOS 1:57.552 0.911
16 5 THIAGO MARTINEZ RENAULT CLIO 1:57.563 0.922
17 64 FAVIO GRINOVERO TOYOTA ETIOS 1:57.684 1,043
18 87 MARCELO MARCHESSE TOYOTA ETIOS 1:57.728 1,087
19 36 RAMIRO ALCAINE RENAULT CLIO 1:57.752 1,111
20 70 AGUSTIN HERRERA RENAULT CLIO 1:57.879 1,238
21 103 IGNACIO RODRIGUEZ RENAULT CLIO 1:58.007 1,366
22 41 EMILIANO URQUIZA TOYOTA ETIOS 1:58.123 1,482
23 24 JUAN KREITZ TOYOTA ETIOS 1:58.144 1,503
24 22 JUAN PABLO URRUTIA FIESTA KINETIC 1:58.177 1,536
25 19 LUIGI MELLI TOYOTA ETIOS 1:58.493 1,852
26 1 LUCAS PETRACCHINI RENAULT CLIO 1:58.530 1,889
27 35 EDUARDO MORENO TOYOTA ETIOS 1:58.559 1,918
28 29 PABLO MALIZIA TOYOTA ETIOS 1:58.742 2,101
29 56 RUBEN LOIACONO TOYOTA ETIOS 1:58.763 2,122
30 49 MARCELO GARCIA RENAULT CLIO 1:58.885 2,244
31 152 EZEQUIEL BALDINELLI FIESTA KINETIC 1:58.915 2,274
32 57 ESTEBAN CASAIS RENAULT CLIO 1:59.081 2,440
33 67 PABLO M. GRIPPO RENAULT CLIO 1:59.223 2,582
34 44 JUAN JOSE CONDE RENAULT CLIO 1:59.251 2,610
35 111 DAMIAN DE LIMA TOYOTA ETIOS 1:59.397 2,756
36 37 ELIAS BATTINI TOYOTA ETIOS 1:59.516 2,875
37 100 MAURO SALVI RENAULT CLIO 1:59.606 2,965
38 101 LUCIANO VIANA TOYOTA ETIOS 1:59.774 3,133
39 62 DANIEL LESTARD TOYOTA ETIOS 1:59.896 3,255
40 91 FRANCISCO MARTINEZ FIESTA KINETIC 1:59.924 3,283
41 52 FACUNDO VACCALLUZZO RENAULT CLIO 1:59.945 3,304
42 80 IGNACIO GRIPPO TOYOTA ETIOS 1:59.988 3,347
43 99 IGNACIO ARANEGA RENAULT CLIO 2:00.184 3,543
44 95 PABLO MELILLO RENAULT CLIO 2:00.284 3,643
45 232 ELOY HUARTE TOYOTA ETIOS 2:00.660 4,019
46 132 TOMAS MARTIN FIESTA KINETIC 2:01.376 4,735
47 48 SEBASTIAN SIGNORE TOYOTA ETIOS 2:01.492 4,851
48 88 LAUTARO LANCI TOYOTA ETIOS 2:02.315 5,674
49 58 DIEGO PRESTA RENAULT CLIO 2:03.487 6,846
50 76 DAVID SILITTI RENAULT CLIO 2:05.776 9,135
51 14 JUAN M DAMIANI TOYOTA ETIOS 2:07.665 11,024
52 115 ROBERTO SINTIOLO RENAULT CLIO 2:23.560 26,919
53 121 NICOLAS POSCO TOYOTA ETIOS 2:24.539 27,898
54 66 JUAN GARAVAGLIA CHEVROLET ONIX 15:50.843 13:54.202
55 73 GABRIEL MELIAN FIESTA KINETIC

Pos Auto Piloto Marca Tiempo Dif.
1 121 NICOLAS POSCO TOYOTA ETIOS 1:56.899
2 18 GONZALO ALCAINE RENAULT CLIO 1:57.027 0.128
3 4 JUAN BENEDETTI TOYOTA ETIOS 1:57.089 0.190
4 20 SANTIAGO ROBLEDO TOYOTA ETIOS 1:57.286 0.387
5 3 ANDRES D'AMICO RENAULT CLIO 1:57.323 0.424
6 77 MATIAS CRAVERO FIESTA KINETIC 1:57.545 0.646
7 5 THIAGO MARTINEZ RENAULT CLIO 1:57.576 0.677
8 2 FRANCISCO COLTRINARI TOYOTA ETIOS 1:57.790 0.891
9 36 RAMIRO ALCAINE RENAULT CLIO 1:57.795 0.896
10 8 NICOLAS BULICH TOYOTA ETIOS 1:57.801 0.902
11 10 TOMAS SNIECHOWSKI FIESTA KINETIC 1:58.147 1,248
12 1 LUCAS PETRACCHINI RENAULT CLIO 1:58.151 1,252
13 69 TOMAS VITAR TOYOTA ETIOS 1:58.189 1,290
14 87 MARCELO MARCHESSE TOYOTA ETIOS 1:58.256 1,357
15 15 JORGE POSSIEL NISSAN MARCH 1:58.261 1,362
16 11 ALFREDO LESTARD RENAULT CLIO 1:58.427 1,528
17 28 LUCAS BARBALARGA RENAULT CLIO 1:58.456 1,557
18 6 RENZO CERRETTI FIESTA KINETIC 1:58.510 1,611
19 97 FEDERICO STIEGLITZ NISSAN MARCH 1:58.526 1,627
20 22 JUAN PABLO URRUTIA FIESTA KINETIC 1:58.562 1,663
21 12 JONATHAN BALDINELLI CHEVROLET ONIX 1:58.594 1,695
22 152 EZEQUIEL BALDINELLI FIESTA KINETIC 1:58.606 1,707
23 19 LUIGI MELLI TOYOTA ETIOS 1:58.665 1,766
24 29 PABLO MALIZIA TOYOTA ETIOS 1:58.696 1,797
25 58 DIEGO PRESTA RENAULT CLIO 1:58.706 1,807
26 70 AGUSTIN HERRERA RENAULT CLIO 1:58.884 1,985
27 57 ESTEBAN CASAIS RENAULT CLIO 1:58.944 2,045
28 41 EMILIANO URQUIZA TOYOTA ETIOS 1:59.102 2,203
29 49 MARCELO GARCIA RENAULT CLIO 1:59.289 2,390
30 132 TOMAS MARTIN FIESTA KINETIC 1:59.353 2,454
31 103 IGNACIO RODRIGUEZ RENAULT CLIO 1:59.411 2,512
32 35 EDUARDO MORENO TOYOTA ETIOS 1:59.428 2,529
33 73 GABRIEL MELIAN FIESTA KINETIC 1:59.441 2,542
34 24 JUAN KREITZ TOYOTA ETIOS 1:59.485 2,586
35 44 JUAN JOSE CONDE RENAULT CLIO 1:59.653 2,754
36 95 PABLO MELILLO RENAULT CLIO 1:59.728 2,829
37 100 MAURO SALVI RENAULT CLIO 1:59.841 2,942
38 56 RUBEN LOIACONO TOYOTA ETIOS 1:59.893 2,994
39 64 FAVIO GRINOVERO TOYOTA ETIOS 1:59.900 3,001
40 48 SEBASTIAN SIGNORE TOYOTA ETIOS 2:00.027 3,128
41 80 IGNACIO GRIPPO TOYOTA ETIOS 2:00.290 3,391
42 91 FRANCISCO MARTINEZ FIESTA KINETIC 2:00.300 3,401
43 232 ELOY HUARTE TOYOTA ETIOS 2:00.308 3,409
44 52 FACUNDO VACCALLUZZO RENAULT CLIO 2:01.456 4,557
45 111 DAMIAN DE LIMA TOYOTA ETIOS 2:02.292 5,393
46 99 IGNACIO ARANEGA RENAULT CLIO 2:02.502 5,603
47 62 DANIEL LESTARD TOYOTA ETIOS 2:02.782 5,883
48 115 ROBERTO SINTIOLO RENAULT CLIO 2:02.828 5,929
49 14 JUAN M DAMIANI TOYOTA ETIOS 2:03.212 6,313
50 67 PABLO M. GRIPPO RENAULT CLIO 2:05.645 8,746
51 76 DAVID SILITTI RENAULT CLIO 2:07.229 10,330
52 88 LAUTARO LANCI TOYOTA ETIOS 2:07.559 10,660
53 37 ELIAS BATTINI TOYOTA ETIOS 5:10.477 3:13.578
54 101 LUCIANO VIANA TOYOTA ETIOS 7:31.470 5:34.571

AUTOS 10 (SNIECHOWSKI) Y 64 (GRINOVERO) RETIRO DE UNA VUELTA POR EXCEDER LIMITE DEL CIRCUITO.
SIN TIEMPO AUTO 66 (GARAVAGLIA).